Location: Newark
(39.0450°N, 122.9183°W)
Time: 16:54:56
(UTC+00:00)

OTV 5 (USA 277) - Visible Passes

Search period start: 19 October 2019 00:00
Search period end: 29 October 2019 00:00
Orbit: 310 x 324 km, 54.5° (Epoch: 17 October)

Date Brightness Start Highest point End Pass type
(mag) Time Alt. Az. Time Alt. Az. Time Alt. Az.
19 Oct ? 12:24:58 15° NE 12:24:58 15° NE 12:26:18 10° ENE visible
19 Oct ? 13:56:25 10° WNW 13:59:02 40° SW 14:01:37 10° SSE visible
20 Oct ? 12:39:38 31° NE 12:39:38 31° NE 12:41:50 10° ESE visible
21 Oct ? 12:54:26 52° SSE 12:54:26 52° SSE 12:56:37 10° SE visible
22 Oct ? 13:09:21 18° SSW 13:09:21 18° SSW 13:10:34 10° S visible
27 Oct ? 03:14:14 10° SW 03:14:49 15° SW 03:14:49 15° SW visible
28 Oct ? 01:55:49 10° SSE 01:57:26 15° SE 01:58:38 12° E visible
28 Oct ? 03:29:05 10° WSW 03:29:33 13° W 03:29:33 13° W visible
